Flag for U.S.A. Weather past 2 weeks in Hayward, California, U.S.A.

Now
63 °F

Sunny.


Feels Like: 63 °F
Forecast: 44 / 62 °F
Wind: 9 mph from West

Location: Hayward Air Terminal

Current Time: Mar 3, 2015 at 3:04:38 PM

Latest Report: Mar 3, 2015 at 1:54 PM


Visibility: 10 mi

Pressure: 30.02 "Hg

Humidity: 54%

Dew point: 46 °F

Location of HaywardLocation

Historic Weather in Hayward — Graph

°F

Hayward temperature yesterday

Maximum temperature yesterday: 61 °F (at 1:54 PM)
Minimum temperature yesterday: 46 °F (at 3:54 AM)
Average temperature yesterday: 54 °F

Past Weeks' High & Low Weather Summary

 TemperatureHumidityPressure
High71 °F (Feb 16, 1:54 PM)90% (Feb 17, 5:54 AM)30.39 "Hg (Feb 17, 5:54 AM)
Low40 °F (Feb 24, 2:54 AM)18% (Feb 23, 4:54 PM)29.75 "Hg (Feb 28, 3:54 AM)
Average57 °F66%30.04 "Hg
* Reported Feb 16 12:54 PM — Mar 3 12:54 PM, Hayward, Weather by CustomWeather, © 2015

Note: Actual official high and low records may vary slightly from our data, if they occured in-between our weather recording intervals... More about our weather records

Advertising

Hayward weather history for previous 24 hours

 ConditionsComfort  
Time TempWeatherWind HumidityBarometerVisibility
12:54 PM
Tue, Mar 3
61 °FSunny.8 mph62%30.05 "Hg10 mi
11:54 AM60 °FSunny.7 mph65%30.07 "Hg10 mi
10:54 AM58 °FSunny.3 mph67%30.08 "Hg10 mi
9:54 AM57 °FSunny.No wind64%30.09 "Hg10 mi
8:54 AM55 °FSunny.No wind67%30.09 "Hg10 mi
7:54 AM49 °FSunny.3 mph74%30.07 "Hg10 mi
6:54 AM46 °FSunny.5 mph79%30.05 "Hg10 mi
5:54 AM45 °FClear.5 mph80%30.03 "Hg10 mi
4:54 AM45 °FClear.5 mph82%30.03 "Hg10 mi
3:54 AM46 °FClear.5 mph79%30.02 "Hg10 mi
2:54 AM47 °FClear.3 mph80%30.02 "Hg10 mi
1:54 AM48 °FClear.5 mph77%30.03 "Hg10 mi
12:54 AM49 °FClear.5 mph77%30.02 "Hg10 mi
11:54 PM
Mon, Mar 2
50 °FClear.5 mph77%30.01 "Hg10 mi
10:54 PM51 °FClear.3 mph74%30.00 "Hg10 mi
9:54 PM53 °FClear.No wind72%29.98 "Hg10 mi
8:54 PM57 °FPassing clouds.3 mph62%29.96 "Hg10 mi
7:54 PM57 °FMostly cloudy.No wind64%29.94 "Hg10 mi
6:54 PM58 °FOvercast.No wind60%29.90 "Hg10 mi
5:54 PM58 °FPartly sunny.No wind54%29.88 "Hg10 mi
4:54 PM56 °FSunny.No wind62%29.86 "Hg10 mi
3:54 PM57 °FPartly sunny.5 mph64%29.85 "Hg10 mi
Weather by CustomWeather, © 2015

See weather overviewHow to use our weather pages